• In Portugal
  • List of Countries
  • For 7 days
  • Water Temperature
  • Satellite Maps
  • Weather Map
  • Weather Widgets
  • user-avatar
    Login

    Hourly Weather Niedzwiedzica

    Today, 25 September, Tuesday

    Time Temperature Precipitation Wind Pressure Humidity
    00:00 +3°C° 0 mm 4 mps 725 mmHg 83%
    01:00 +2°C° 0 mm 3 mps 726 mmHg 88%
    02:00 +2°C° 0 mm 3 mps 726 mmHg 88%
    03:00 +1°C° 0 mm 4 mps 726 mmHg 87%
    04:00 +1°C° 0 mm 4 mps 727 mmHg 87%
    05:00 +1°C° 0 mm 4 mps 727 mmHg 85%
    06:00 +1°C° 0 mm 4 mps 728 mmHg 84%
    07:00 +1°C° 0 mm 4 mps 729 mmHg 80%
    08:00 +4°C° 0 mm 4 mps 729 mmHg 74%
    09:00 +5°C° 0 mm 5 mps 729 mmHg 68%
    10:00 +7°C° 0 mm 5 mps 730 mmHg 61%
    11:00 +7°C° 0 mm 5 mps 730 mmHg 58%
    12:00 +8°C° 0 mm 5 mps 730 mmHg 54%
    13:00 +9°C° 0 mm 5 mps 731 mmHg 50%
    14:00 +9°C° 0 mm 5 mps 731 mmHg 51%
    15:00 +10°C° 0 mm 4 mps 731 mmHg 51%
    16:00 +10°C° 0 mm 4 mps 731 mmHg 52%
    17:00 +8°C° 0 mm 3 mps 731 mmHg 58%
    18:00 +7°C° 0 mm 3 mps 731 mmHg 65%
    19:00 +5°C° 0 mm 2 mps 731 mmHg 71%
    20:00 +5°C° 0 mm 2 mps 731 mmHg 72%
    21:00 +4°C° 0 mm 2 mps 732 mmHg 73%
    22:00 +4°C° 0 mm 2 mps 732 mmHg 74%
    23:00 +4°C° 0 mm 2 mps 732 mmHg 75%

    Tomorrow, 26 September, Wednesday

    Time Temperature Precipitation Wind Pressure Humidity
    00:00 +3°C° 0 mm 2 mps 732 mmHg 75%
    01:00 +3°C° 0 mm 2 mps 732 mmHg 76%
    02:00 +3°C° 0 mm 2 mps 732 mmHg 76%
    03:00 +3°C° 0 mm 2 mps 732 mmHg 77%
    04:00 +2°C° 0 mm 2 mps 732 mmHg 77%
    05:00 +3°C° 0 mm 2 mps 732 mmHg 76%
    06:00 +3°C° 0 mm 2 mps 732 mmHg 75%
    07:00 +4°C° 0 mm 2 mps 732 mmHg 73%
    08:00 +6°C° 0 mm 2 mps 732 mmHg 65%
    09:00 +8°C° 0 mm 3 mps 732 mmHg 57%
    10:00 +10°C° 0 mm 3 mps 732 mmHg 48%
    11:00 +11°C° 0 mm 4 mps 731 mmHg 45%
    12:00 +12°C° 0 mm 4 mps 731 mmHg 42%
    13:00 +13°C° 0 mm 5 mps 730 mmHg 39%
    14:00 +13°C° 0 mm 4 mps 730 mmHg 41%
    15:00 +13°C° 0 mm 4 mps 729 mmHg 42%
    16:00 +13°C° 0 mm 4 mps 729 mmHg 43%
    17:00 +12°C° 0 mm 4 mps 728 mmHg 46%
    18:00 +10°C° 0 mm 4 mps 728 mmHg 49%
    19:00 +8°C° 0 mm 4 mps 728 mmHg 52%
    20:00 +8°C° 0 mm 4 mps 728 mmHg 53%
    21:00 +7°C° 0 mm 4 mps 728 mmHg 54%
    22:00 +7°C° 0 mm 4 mps 728 mmHg 55%
    23:00 +8°C° 0 mm 3 mps 728 mmHg 55%

    Day after tomorrow, 27 September, Thursday

    Time Temperature Precipitation Wind Pressure Humidity
    00:00 +8°C° 0 mm 3 mps 728 mmHg 56%
    01:00 +8°C° 0 mm 3 mps 728 mmHg 57%
    02:00 +8°C° 0 mm 3 mps 727 mmHg 57%
    03:00 +8°C° 0 mm 3 mps 727 mmHg 58%
    04:00 +7°C° 0 mm 3 mps 727 mmHg 58%
    05:00 +8°C° 0 mm 3 mps 727 mmHg 58%
    06:00 +8°C° 0 mm 3 mps 727 mmHg 58%
    07:00 +9°C° 0 mm 3 mps 727 mmHg 58%
    08:00 +11°C° 0 mm 3 mps 727 mmHg 55%
    09:00 +13°C° 0 mm 4 mps 727 mmHg 52%
    10:00 +15°C° 0 mm 4 mps 728 mmHg 50%
    11:00 +17°C° 0 mm 4 mps 727 mmHg 50%
    12:00 +18°C° 0 mm 4 mps 727 mmHg 50%
    13:00 +19°C° 0 mm 4 mps 727 mmHg 50%
    14:00 +19°C° 0 mm 3 mps 726 mmHg 52%
    15:00 +19°C° 0 mm 3 mps 726 mmHg 53%
    16:00 +19°C° 0 mm 3 mps 726 mmHg 54%
    17:00 +17°C° 0 mm 3 mps 725 mmHg 59%
    18:00 +16°C° 0 mm 2 mps 725 mmHg 63%
    19:00 +14°C° 0 mm 2 mps 724 mmHg 68%
    20:00 +13°C° 0 mm 2 mps 724 mmHg 66%
    21:00 +13°C° 0 mm 2 mps 724 mmHg 65%
    22:00 +13°C° 0 mm 2 mps 723 mmHg 64%
    23:00 +12°C° 0 mm 2 mps 723 mmHg 64%

    28 September, Friday

    Time Temperature Precipitation Wind Pressure Humidity
    00:00 +11°C° 0 mm 3 mps 722 mmHg 64%
    01:00 +11°C° 0 mm 3 mps 722 mmHg 64%
    02:00 +10°C° 0 mm 3 mps 721 mmHg 64%
    03:00 +10°C° 0 mm 3 mps 721 mmHg 63%
    04:00 +10°C° 0 mm 3 mps 720 mmHg 63%
    05:00 +10°C° 0 mm 3 mps 720 mmHg 64%
    06:00 +10°C° 0 mm 3 mps 720 mmHg 64%
    07:00 +10°C° 0 mm 3 mps 720 mmHg 64%
    08:00 +11°C° 0 mm 3 mps 720 mmHg 60%
    09:00 +13°C° 0 mm 3 mps 720 mmHg 55%
    10:00 +15°C° 0 mm 4 mps 720 mmHg 50%
    11:00 +17°C° 0 mm 4 mps 720 mmHg 49%
    12:00 +17°C° 0 mm 4 mps 720 mmHg 47%
    13:00 +18°C° 0 mm 4 mps 720 mmHg 46%
    14:00 +17°C° 0 mm 4 mps 720 mmHg 50%
    15:00 +17°C° 0 mm 4 mps 720 mmHg 54%
    16:00 +15°C° 0 mm 4 mps 720 mmHg 58%
    17:00 +13°C° 0 mm 4 mps 720 mmHg 66%
    18:00 +11°C° 0 mm 3 mps 720 mmHg 74%
    19:00 +10°C° 0 mm 3 mps 720 mmHg 82%
    20:00 +9°C° 0 mm 2 mps 721 mmHg 83%
    21:00 +8°C° 0 mm 2 mps 721 mmHg 84%
    22:00 +8°C° 0 mm 2 mps 721 mmHg 85%
    23:00 +7°C° 0 mm 2 mps 721 mmHg 85%

    29 September, Saturday

    Time Temperature Precipitation Wind Pressure Humidity
    00:00 +7°C° 0 mm 2 mps 721 mmHg 84%
    01:00 +6°C° 0 mm 2 mps 722 mmHg 84%
    02:00 +6°C° 0 mm 2 mps 722 mmHg 86%
    03:00 +5°C° 0 mm 2 mps 722 mmHg 87%
    04:00 +5°C° 0 mm 2 mps 722 mmHg 89%
    05:00 +5°C° 0 mm 2 mps 723 mmHg 88%
    06:00 +5°C° 0 mm 2 mps 723 mmHg 88%
    07:00 +5°C° 0 mm 2 mps 724 mmHg 87%
    08:00 +7°C° 0 mm 3 mps 724 mmHg 77%
    09:00 +8°C° 0 mm 3 mps 725 mmHg 66%
    10:00 +10°C° 0 mm 4 mps 725 mmHg 56%
    11:00 +10°C° 0 mm 4 mps 725 mmHg 52%
    12:00 +11°C° 0 mm 4 mps 725 mmHg 49%
    13:00 +12°C° 0 mm 4 mps 725 mmHg 46%
    14:00 +11°C° 0 mm 3 mps 725 mmHg 47%
    15:00 +11°C° 0 mm 3 mps 725 mmHg 47%
    16:00 +11°C° 0 mm 3 mps 724 mmHg 48%
    17:00 +9°C° 0 mm 3 mps 725 mmHg 54%
    18:00 +8°C° 0 mm 2 mps 725 mmHg 60%
    19:00 +6°C° 0 mm 2 mps 725 mmHg 65%
    20:00 +6°C° 0 mm 2 mps 725 mmHg 67%
    21:00 +5°C° 0 mm 2 mps 725 mmHg 68%
    22:00 +5°C° 0 mm 2 mps 725 mmHg 70%
    23:00 +5°C° 0 mm 1 mps 725 mmHg 71%

    30 September, Sunday

    Time Temperature Precipitation Wind Pressure Humidity
    00:00 +5°C° 0 mm 1 mps 724 mmHg 72%
    01:00 +5°C° 0 mm 1 mps 724 mmHg 73%
    02:00 +4°C° 0 mm 1 mps 724 mmHg 75%
    03:00 +4°C° 0 mm 1 mps 724 mmHg 77%
    04:00 +4°C° 0 mm 1 mps 723 mmHg 78%
    05:00 +4°C° 0 mm 1 mps 723 mmHg 78%
    06:00 +5°C° 0 mm 1 mps 723 mmHg 77%
    07:00 +5°C° 0 mm 1 mps 723 mmHg 77%
    08:00 +6°C° 0 mm 2 mps 723 mmHg 68%
    09:00 +8°C° 0 mm 3 mps 723 mmHg 59%
    10:00 +10°C° 0 mm 3 mps 723 mmHg 51%
    11:00 +11°C° 0 mm 3 mps 722 mmHg 48%
    12:00 +12°C° 0 mm 3 mps 722 mmHg 45%
    13:00 +13°C° 0 mm 3 mps 721 mmHg 42%
    14:00 +13°C° 0 mm 3 mps 721 mmHg 44%
    15:00 +13°C° 0 mm 3 mps 720 mmHg 45%
    16:00 +13°C° 0 mm 3 mps 720 mmHg 47%
    17:00 +12°C° 0 mm 2 mps 719 mmHg 53%
    18:00 +9°C° 0 mm 2 mps 719 mmHg 59%
    19:00 +8°C° 0 mm 1 mps 719 mmHg 65%
    20:00 +8°C° 0 mm 1 mps 719 mmHg 66%
    21:00 +7°C° 0 mm 1 mps 718 mmHg 67%
    22:00 +7°C° 0 mm 1 mps 718 mmHg 68%
    23:00 +7°C° 0 mm 1 mps 718 mmHg 69%
    Show more